Time,TemperatureF,DewpointF,PressureIn,WindDirection,WindDirectionDegrees,WindSpeedMPH,WindSpeedGustMPH,Humidity,HourlyPrecipIn,Conditions,Clouds,dailyrainin,SoftwareType,DateUTC
2013-03-07 00:00:00,33.6,31.5,29.96,ENE,67,7.8,-999.0,92,-99.99,,,0.00,Acu-Link.com,2013-03-07 05:00:00,
2013-03-07 00:15:00,34.0,31.4,29.96,NNE,22,10.9,-999.0,90,-99.99,,,0.00,Acu-Link.com,2013-03-07 05:15:00,
2013-03-07 00:30:00,33.8,31.2,29.96,North,0,15.5,-999.0,90,-99.99,,,0.00,Acu-Link.com,2013-03-07 05:30:00,
2013-03-07 00:45:00,34.0,31.1,29.96,NNE,22,17.1,-999.0,89,-99.99,,,0.00,Acu-Link.com,2013-03-07 05:45:00,
2013-03-07 01:00:00,33.8,30.6,29.95,NNE,22,10.4,-999.0,88,-99.99,,,0.00,Acu-Link.com,2013-03-07 06:00:00,
2013-03-07 01:15:00,33.4,30.5,29.95,NE,45,10.9,-999.0,89,-99.99,,,0.00,Acu-Link.com,2013-03-07 06:15:00,
2013-03-07 01:31:00,33.6,30.7,29.94,NNE,22,13.5,-999.0,89,-99.99,,,0.00,Acu-Link.com,2013-03-07 06:31:00,
2013-03-07 01:46:00,33.4,30.5,29.94,NE,45,12.5,-999.0,89,-99.99,,,0.00,Acu-Link.com,2013-03-07 06:46:00,
2013-03-07 02:01:00,33.4,30.2,29.93,ENE,67,7.8,-999.0,88,-99.99,,,0.00,Acu-Link.com,2013-03-07 07:01:00,
2013-03-07 02:16:00,33.1,30.2,29.92,NNE,22,14.0,-999.0,89,-99.99,,,0.00,Acu-Link.com,2013-03-07 07:16:00,
2013-03-07 02:31:00,32.7,30.6,29.93,NE,45,5.8,-999.0,92,-99.99,,,0.00,Acu-Link.com,2013-03-07 07:31:00,
2013-03-07 02:46:00,32.2,30.9,29.93,NNE,22,11.9,-999.0,95,-99.99,,,0.00,Acu-Link.com,2013-03-07 07:46:00,
2013-03-07 03:01:00,31.8,31.3,29.93,NE,45,14.0,-999.0,98,-99.99,,,0.00,Acu-Link.com,2013-03-07 08:01:00,
2013-03-07 03:16:00,32.5,32.0,29.93,NE,45,7.8,-999.0,98,-99.99,,,0.00,Acu-Link.com,2013-03-07 08:16:00,
2013-03-07 03:31:00,32.0,31.5,29.93,NE,45,13.0,-999.0,98,-99.99,,,0.00,Acu-Link.com,2013-03-07 08:31:00,
2013-03-07 03:47:00,31.5,31.0,29.94,NNE,22,11.4,-999.0,98,-99.99,,,0.00,Acu-Link.com,2013-03-07 08:47:00,
2013-03-07 04:02:00,31.1,30.6,29.94,ENE,67,7.3,-999.0,98,-99.99,,,0.00,Acu-Link.com,2013-03-07 09:02:00,
2013-03-07 04:17:00,32.5,32.0,29.94,WNW,292,9.4,-999.0,98,-99.99,,,0.00,Acu-Link.com,2013-03-07 09:17:00,
2013-03-07 04:32:00,30.7,30.2,29.94,NNE,22,6.3,-999.0,98,-99.99,,,0.00,Acu-Link.com,2013-03-07 09:32:00,
2013-03-07 04:47:00,30.6,30.1,29.94,NE,45,10.4,-999.0,98,-99.99,,,0.00,Acu-Link.com,2013-03-07 09:47:00,
2013-03-07 05:02:00,30.9,30.4,29.94,NNE,22,9.4,-999.0,98,-99.99,,,0.00,Acu-Link.com,2013-03-07 10:02:00,
2013-03-07 05:17:00,31.3,29.0,29.95,NE,45,10.9,-999.0,91,-99.99,,,0.00,Acu-Link.com,2013-03-07 10:17:00,
2013-03-07 05:32:00,31.3,28.7,29.96,NNE,22,13.5,-999.0,90,-99.99,,,0.00,Acu-Link.com,2013-03-07 10:32:00,
2013-03-07 05:48:00,31.3,28.4,29.97,NNE,22,11.4,-999.0,89,-99.99,,,0.00,Acu-Link.com,2013-03-07 10:48:00,
2013-03-07 06:03:00,31.3,28.4,29.97,NE,45,12.5,-999.0,89,-99.99,,,0.00,Acu-Link.com,2013-03-07 11:03:00,
2013-03-07 06:18:00,30.9,28.6,29.97,NNW,337,16.1,-999.0,91,-99.99,,,0.00,Acu-Link.com,2013-03-07 11:18:00,
2013-03-07 06:33:00,30.7,28.4,29.97,ENE,67,7.3,-999.0,91,-99.99,,,0.00,Acu-Link.com,2013-03-07 11:33:00,
2013-03-07 06:48:00,30.2,29.7,29.97,NNE,22,7.3,-999.0,98,-99.99,,,0.00,Acu-Link.com,2013-03-07 11:48:00,
2013-03-07 07:03:00,30.2,29.7,29.96,North,0,6.3,-999.0,98,-99.99,,,0.00,Acu-Link.com,2013-03-07 12:03:00,
2013-03-07 07:19:00,30.2,29.7,29.97,NE,45,13.0,-999.0,98,-99.99,,,0.00,Acu-Link.com,2013-03-07 12:19:00,
2013-03-07 07:34:00,30.2,29.7,29.97,NE,45,7.8,-999.0,98,-99.99,,,0.00,Acu-Link.com,2013-03-07 12:34:00,
2013-03-07 07:49:00,30.4,29.9,29.97,NNE,22,6.8,-999.0,98,-99.99,,,0.00,Acu-Link.com,2013-03-07 12:49:00,
2013-03-07 08:04:00,30.6,28.6,29.97,NE,45,10.9,-999.0,92,-99.99,,,0.00,Acu-Link.com,2013-03-07 13:04:00,
2013-03-07 08:19:00,30.9,28.3,29.97,NW,315,7.8,-999.0,90,-99.99,,,0.00,Acu-Link.com,2013-03-07 13:19:00,
2013-03-07 08:34:00,31.6,28.7,29.97,North,0,14.5,-999.0,89,-99.99,,,0.00,Acu-Link.com,2013-03-07 13:34:00,
2013-03-07 08:49:00,32.2,28.8,29.96,NNE,22,8.9,-999.0,87,-99.99,,,0.00,Acu-Link.com,2013-03-07 13:49:00,
2013-03-07 09:04:00,33.4,29.1,29.96,WNW,292,7.8,-999.0,84,-99.99,,,0.00,Acu-Link.com,2013-03-07 14:04:00,
2013-03-07 09:19:00,34.0,28.8,29.96,NE,45,13.5,-999.0,81,-99.99,,,0.01,Acu-Link.com,2013-03-07 14:19:00,
2013-03-07 09:35:00,34.5,29.3,29.95,WNW,292,8.3,-999.0,81,-99.99,,,0.01,Acu-Link.com,2013-03-07 14:35:00,
2013-03-07 09:50:00,34.9,29.7,29.96,ENE,67,11.4,-999.0,81,-99.99,,,0.01,Acu-Link.com,2013-03-07 14:50:00,
2013-03-07 10:05:00,34.9,29.4,29.96,NNE,22,7.8,-999.0,80,-99.99,,,0.01,Acu-Link.com,2013-03-07 15:05:00,
2013-03-07 10:20:00,34.9,29.7,29.96,East,90,8.3,-999.0,81,-99.99,,,0.01,Acu-Link.com,2013-03-07 15:20:00,
2013-03-07 10:35:00,34.2,29.3,29.96,West,270,13.5,-999.0,82,-99.99,,,0.01,Acu-Link.com,2013-03-07 15:35:00,
2013-03-07 10:50:00,34.3,29.7,29.96,NE,45,11.9,-999.0,83,-99.99,,,0.01,Acu-Link.com,2013-03-07 15:50:00,
2013-03-07 11:05:00,34.2,29.9,29.96,NE,45,13.5,-999.0,84,-99.99,,,0.01,Acu-Link.com,2013-03-07 16:05:00,
2013-03-07 11:20:00,35.1,30.8,29.97,ENE,67,14.5,-999.0,84,-99.99,,,0.01,Acu-Link.com,2013-03-07 16:20:00,
2013-03-07 11:35:00,34.7,30.7,29.98,NNE,22,8.3,-999.0,85,-99.99,,,0.01,Acu-Link.com,2013-03-07 16:35:00,
2013-03-07 11:51:00,34.3,30.8,29.97,NE,45,6.8,-999.0,87,-99.99,,,0.01,Acu-Link.com,2013-03-07 16:51:00,
2013-03-07 12:06:00,34.7,31.2,29.97,NE,45,7.8,-999.0,87,-99.99,,,0.01,Acu-Link.com,2013-03-07 17:06:00,
2013-03-07 12:21:00,34.2,30.7,29.98,NE,45,13.5,-999.0,87,-99.99,,,0.01,Acu-Link.com,2013-03-07 17:21:00,
2013-03-07 12:36:00,36.7,33.2,29.97,NW,315,8.9,-999.0,87,-99.99,,,0.01,Acu-Link.com,2013-03-07 17:36:00,
2013-03-07 12:51:00,35.2,31.2,29.96,NNE,22,7.3,-999.0,85,-99.99,,,0.01,Acu-Link.com,2013-03-07 17:51:00,
2013-03-07 13:06:00,34.5,31.0,29.97,NNE,22,5.8,-999.0,87,-99.99,,,0.01,Acu-Link.com,2013-03-07 18:06:00,
2013-03-07 13:21:00,34.3,30.8,29.96,NE,45,6.3,-999.0,87,-99.99,,,0.01,Acu-Link.com,2013-03-07 18:21:00,
2013-03-07 13:36:00,34.7,31.2,29.97,NW,315,7.3,-999.0,87,-99.99,,,0.01,Acu-Link.com,2013-03-07 18:36:00,
2013-03-07 14:07:00,34.5,30.8,29.97,NE,45,9.9,-999.0,86,-99.99,,,0.01,Acu-Link.com,2013-03-07 19:07:00,
2013-03-07 14:22:00,34.5,30.8,29.96,NNW,337,5.8,-999.0,86,-99.99,,,0.01,Acu-Link.com,2013-03-07 19:22:00,
2013-03-07 14:38:00,34.7,30.4,29.96,NE,45,8.9,-999.0,84,-99.99,,,0.01,Acu-Link.com,2013-03-07 19:38:00,
2013-03-07 14:53:00,34.7,30.9,29.96,North,0,11.4,-999.0,86,-99.99,,,0.01,Acu-Link.com,2013-03-07 19:53:00,
2013-03-07 15:08:00,34.9,30.6,29.95,NNE,22,10.4,-999.0,84,-99.99,,,0.01,Acu-Link.com,2013-03-07 20:08:00,
2013-03-07 15:23:00,34.7,30.7,29.96,NNE,22,10.9,-999.0,85,-99.99,,,0.01,Acu-Link.com,2013-03-07 20:23:00,
2013-03-07 15:53:00,34.5,30.8,29.96,NNE,22,11.9,-999.0,86,-99.99,,,0.01,Acu-Link.com,2013-03-07 20:53:00,
2013-03-07 16:08:00,34.3,30.8,29.96,NNE,22,10.4,-999.0,87,-99.99,,,0.01,Acu-Link.com,2013-03-07 21:08:00,
2013-03-07 16:38:00,33.8,30.9,29.97,WNW,292,6.3,-999.0,89,-99.99,,,0.01,Acu-Link.com,2013-03-07 21:38:00,
2013-03-07 16:54:00,33.3,31.0,29.97,North,0,5.3,-999.0,91,-99.99,,,0.01,Acu-Link.com,2013-03-07 21:54:00,
2013-03-07 17:09:00,32.7,32.2,29.97,NE,45,3.7,-999.0,98,-99.99,,,0.01,Acu-Link.com,2013-03-07 22:09:00,
2013-03-07 17:24:00,32.2,31.7,29.97,NE,45,8.3,-999.0,98,-99.99,,,0.01,Acu-Link.com,2013-03-07 22:24:00,
2013-03-07 17:39:00,32.0,31.5,29.97,North,0,6.8,-999.0,98,-99.99,,,0.01,Acu-Link.com,2013-03-07 22:39:00,
2013-03-07 17:54:00,31.5,31.0,29.97,NNW,337,8.3,-999.0,98,-99.99,,,0.01,Acu-Link.com,2013-03-07 22:54:00,
2013-03-07 18:09:00,31.8,31.3,29.97,NE,45,6.3,-999.0,98,-99.99,,,0.01,Acu-Link.com,2013-03-07 23:09:00,
2013-03-07 18:24:00,31.6,31.1,29.98,NNE,22,10.9,-999.0,98,-99.99,,,0.01,Acu-Link.com,2013-03-07 23:24:00,
2013-03-07 18:39:00,31.3,30.8,29.97,NNW,337,8.3,-999.0,98,-99.99,,,0.01,Acu-Link.com,2013-03-07 23:39:00,
2013-03-07 18:54:00,31.1,30.6,29.97,NNE,22,9.4,-999.0,98,-99.99,,,0.01,Acu-Link.com,2013-03-07 23:54:00,
2013-03-07 19:10:00,31.1,30.6,29.97,North,0,7.3,-999.0,98,-99.99,,,0.01,Acu-Link.com,2013-03-08 00:10:00,
2013-03-07 19:25:00,30.9,30.4,29.97,NNW,337,6.8,-999.0,98,-99.99,,,0.01,Acu-Link.com,2013-03-08 00:25:00,
2013-03-07 19:40:00,30.9,30.4,29.97,ENE,67,8.3,-999.0,98,-99.99,,,0.01,Acu-Link.com,2013-03-08 00:40:00,
2013-03-07 19:55:00,31.1,30.6,29.97,WNW,292,8.3,-999.0,98,-99.99,,,0.01,Acu-Link.com,2013-03-08 00:55:00,
2013-03-07 20:10:00,31.1,30.6,29.97,NE,45,8.3,-999.0,98,-99.99,,,0.01,Acu-Link.com,2013-03-08 01:10:00,
2013-03-07 20:25:00,30.7,30.2,29.96,West,270,6.8,-999.0,98,-99.99,,,0.01,Acu-Link.com,2013-03-08 01:25:00,
2013-03-07 20:40:00,30.7,30.2,29.96,NE,45,4.7,-999.0,98,-99.99,,,0.01,Acu-Link.com,2013-03-08 01:40:00,
2013-03-07 20:55:00,30.7,30.2,29.96,NNW,337,6.8,-999.0,98,-99.99,,,0.01,Acu-Link.com,2013-03-08 01:55:00,
2013-03-07 21:10:00,30.7,30.2,29.96,North,0,6.3,-999.0,98,-99.99,,,0.01,Acu-Link.com,2013-03-08 02:10:00,
2013-03-07 21:26:00,30.7,30.2,29.96,ENE,67,6.8,-999.0,98,-99.99,,,0.01,Acu-Link.com,2013-03-08 02:26:00,
2013-03-07 21:41:00,30.6,30.1,29.95,NNW,337,6.8,-999.0,98,-99.99,,,0.01,Acu-Link.com,2013-03-08 02:41:00,
2013-03-07 21:56:00,30.6,30.1,29.94,North,0,4.7,-999.0,98,-99.99,,,0.01,Acu-Link.com,2013-03-08 02:56:00,
2013-03-07 22:11:00,30.4,29.9,29.94,NNE,22,10.9,-999.0,98,-99.99,,,0.01,Acu-Link.com,2013-03-08 03:11:00,
2013-03-07 22:26:00,30.2,29.7,29.94,NNE,22,6.8,-999.0,98,-99.99,,,0.01,Acu-Link.com,2013-03-08 03:26:00,
2013-03-07 22:41:00,30.2,29.7,29.94,NW,315,7.3,-999.0,98,-99.99,,,0.01,Acu-Link.com,2013-03-08 03:41:00,
2013-03-07 22:56:00,30.2,29.7,29.94,NNE,22,8.9,-999.0,98,-99.99,,,0.01,Acu-Link.com,2013-03-08 03:56:00,
2013-03-07 23:11:00,30.0,29.5,29.93,NE,45,8.9,-999.0,98,-99.99,,,0.01,Acu-Link.com,2013-03-08 04:11:00,
2013-03-07 23:26:00,29.8,29.3,29.93,NW,315,6.3,-999.0,98,-99.99,,,0.01,Acu-Link.com,2013-03-08 04:26:00,
2013-03-07 23:42:00,29.7,29.2,29.93,SW,225,6.8,-999.0,98,-99.99,,,0.01,Acu-Link.com,2013-03-08 04:42:00,
2013-03-07 23:57:00,29.7,29.2,29.93,NW,315,7.3,-999.0,98,-99.99,,,0.01,Acu-Link.com,2013-03-08 04:57:00,